Home   Weather   Ulaanbaatar   Past weeks

Flag for Mongolia Past Weather in Ulaanbaatar, Mongolia — Yesterday and Last 2 Weeks

Now
41 °F

Clear.


Feels Like: 41 °F
Forecast: 46 / 75 °F
Wind: No wind

Location: Ulan-Bator

Current Time: May 1, 2017 at 3:11:11 am

Latest Report: May 1, 2017 at 2:00 am


Visibility: 10 mi

Pressure: 29.86 "Hg (25.46 "Hg at 1298m altitude)

Humidity: 49%

Dew Point: 23 °F

Location of UlaanbaatarLocation

Past Weather in Ulaanbaatar — Graph

°F

Ulaanbaatar Temperature Yesterday

Maximum temperature yesterday: 72 °F (at 2:00 pm)
Minimum temperature yesterday: 32 °F (at 5:00 am)
Average temperature yesterday: 55 °F

High & Low Weather Summary for the Past Weeks

 TemperatureHumidityPressure
High73 °F (Apr 28, 5:30 pm)93% (Apr 16, 9:00 am)30.42 "Hg (Apr 16, 9:00 am)
Low10 °F (Apr 24, 6:30 am)7% (Apr 28, 5:00 pm)29.45 "Hg (Apr 18, 2:00 pm)
Average39 °F39%29.96 "Hg
* Reported Apr 16 2:00 am — May 1 2:00 am, Ulaanbaatar, Weather by CustomWeather, © 2017

Note: Actual official high and low records may vary slightly from our data, if they occured in-between our weather recording intervals... More about our weather records

Advertising

Ulaanbaatar Weather History for the Previous 24 Hours

Scroll right to see more
 ConditionsComfort  
Time TempWeatherWind HumidityBarometerVisibility
2:00 am
Mon, May 1
41 °FClear.No wind49%29.86 "Hg10 mi
1:00 am45 °FClear.1 mph46%29.89 "Hg10 mi
12:00 am45 °FClear.1 mph42%29.89 "Hg10 mi
11:30 pm
Sun, Apr 30
48 °FClear.1 mph34%29.89 "Hg10 mi
11:00 pm45 °FClear.No wind39%29.89 "Hg10 mi
10:30 pm48 °FClear.No wind32%29.89 "Hg10 mi
10:00 pm52 °FClear.1 mph30%29.89 "Hg10 mi
9:30 pm52 °FClear.6 mph30%29.89 "Hg10 mi
9:00 pm52 °FSunny.6 mph30%29.89 "Hg10 mi
8:30 pm54 °FSunny.3 mph28%29.86 "Hg10 mi
8:00 pm63 °FSunny.1 mph24%29.86 "Hg10 mi
7:30 pm66 °FPassing clouds.3 mph19%29.86 "HgN/A
7:00 pm68 °FPassing clouds.6 mph17%29.86 "HgN/A
6:30 pm70 °FPassing clouds.10 mph16%29.86 "HgN/A
6:00 pm70 °FPassing clouds.10 mph16%29.86 "HgN/A
5:30 pm70 °FPassing clouds.8 mph16%29.86 "HgN/A
5:00 pm72 °FPassing clouds.10 mph16%29.86 "HgN/A
4:30 pm72 °FScattered clouds.10 mph16%29.86 "HgN/A
4:00 pm72 °FScattered clouds.13 mph16%29.86 "HgN/A
3:30 pm70 °FScattered clouds.13 mph17%29.86 "HgN/A
3:00 pm72 °FScattered clouds.8 mph17%29.86 "HgN/A
2:30 pm70 °FScattered clouds.8 mph17%29.89 "HgN/A
2:00 pm72 °FScattered clouds.13 mph16%29.89 "HgN/A
1:30 pm68 °FPassing clouds.6 mph20%29.89 "HgN/A
1:00 pm68 °FPassing clouds.3 mph20%29.92 "HgN/A
12:30 pm66 °FScattered clouds.3 mph22%29.92 "HgN/A
12:00 pm64 °FScattered clouds.3 mph22%29.95 "HgN/A
11:30 am64 °FPartly sunny.6 mph24%29.95 "HgN/A
11:00 am63 °FPartly sunny.1 mph25%29.95 "HgN/A
10:30 am59 °FPartly sunny.1 mph29%29.98 "HgN/A
10:00 am55 °FPartly sunny.No wind33%29.98 "HgN/A
9:30 am54 °FPartly sunny.No wind35%29.98 "HgN/A
9:00 am48 °FPartly sunny.1 mph43%29.98 "HgN/A
8:30 am45 °FPartly sunny.1 mph49%29.98 "HgN/A
8:00 am43 °FScattered clouds.No wind49%29.98 "HgN/A
7:30 am41 °FScattered clouds.No wind53%29.98 "HgN/A
7:00 am37 °FScattered clouds.1 mph60%29.95 "HgN/A
6:30 am37 °FPassing clouds.1 mph56%29.95 "HgN/A
6:00 am34 °FPassing clouds.No wind65%29.95 "HgN/A
5:30 am34 °FPassing clouds.No wind60%29.95 "HgN/A
5:00 am32 °FClear.1 mph69%29.95 "Hg10 mi
4:00 am36 °FClear.No wind60%29.92 "Hg10 mi
3:00 am37 °FClear.No wind56%29.92 "Hg10 mi
Weather by CustomWeather, © 2017

See weather overviewHow to use our weather pages